EW5945 Weather Reports


time (UTC)temp
C
wind
direction
speed
KPH
gust
KPH
rain 1hr
cm
rain 24hr
cm
rain mn
cm
humidity
%
barometer
mb
20260506051229 15 207 0.0 0.0 0.00 0.00 0.00 94 1016.6
20260506050727 15 207 0.0 0.0 0.00 0.00 0.00 94 1016.9
20260506050230 15 207 0.0 0.0 0.00 0.00 0.00 94 1016.9
20260506044728 16 191 0.0 0.0 0.00 0.00 0.00 93 1017.3
20260506044228 16 192 0.0 0.0 0.00 0.00 0.00 93 1017.3
20260506043729 16 192 0.0 0.0 0.00 0.00 0.00 93 1017.3
20260506043229 16 191 0.0 0.0 0.00 0.00 0.00 92 1017.3
20260506042727 16 190 0.0 0.0 0.00 0.00 0.00 92 1017.3
20260506042227 16 188 0.0 3.2 0.00 0.00 0.00 92 1017.3
20260506041727 16 213 0.0 3.2 0.00 0.00 0.00 91 1017.3
20260506041230 16 224 0.0 0.0 0.00 0.00 0.00 91 1017.3
20260506040727 16 224 0.0 0.0 0.00 0.00 0.00 91 1017.3
20260506040228 16 229 0.0 0.0 0.00 0.00 0.00 91 1017.6
20260506035728 16 215 0.0 0.0 0.00 0.00 0.00 90 1017.3
20260506035228 16 212 0.0 0.0 0.00 0.00 0.00 90 1017.6
20260506034728 16 214 3.2 6.4 0.00 0.00 0.00 90 1017.6
20260506034227 16 216 0.0 6.4 0.00 0.00 0.00 89 1017.3
20260506033729 16 215 0.0 3.2 0.00 0.00 0.00 89 1017.6
20260506033230 17 211 0.0 0.0 0.00 0.00 0.00 89 1017.6
20260506032729 17 208 0.0 6.4 0.00 0.00 0.00 89 1017.6
20260506032227 17 220 3.2 8.0 0.00 0.00 0.00 89 1017.6
20260506031727 17 214 0.0 8.0 0.00 0.00 0.00 89 1017.6
20260506031229 17 214 6.4 14.5 0.00 0.00 0.00 89 1017.6
20260506030727 17 223 3.2 11.3 0.00 0.00 0.00 89 1017.6
20260506030228 16 199 0.0 6.4 0.00 0.00 0.00 88 1017.6
20260506025729 16 217 0.0 3.2 0.00 0.00 0.00 87 1017.6
20260506025229 17 189 0.0 3.2 0.00 0.00 0.00 87 1017.6
20260506024733 17 225 0.0 3.2 0.00 0.00 0.00 86 1017.6
20260506024228 17 202 0.0 0.0 0.00 0.00 0.00 86 1017.6
20260506023727 17 204 0.0 6.4 0.00 0.00 0.00 86 1017.6
20260506023229 17 210 0.0 3.2 0.00 0.00 0.00 85 1017.6
20260506022729 17 213 0.0 6.4 0.00 0.00 0.00 85 1017.6
20260506022230 17 210 0.0 6.4 0.00 0.00 0.00 85 1017.6
20260506021728 17 225 0.0 3.2 0.00 0.00 0.00 84 1017.6
20260506021228 17 208 0.0 6.4 0.00 0.00 0.00 84 1017.3
20260506020729 17 204 0.0 3.2 0.00 0.00 0.00 83 1017.6
20260506020229 17 206 0.0 3.2 0.00 0.00 0.00 83 1017.3
20260506015728 18 234 3.2 8.0 0.00 0.00 0.00 83 1017.3
20260506015228 18 189 3.2 11.3 0.00 0.00 0.00 82 1017.3
20260506014729 18 194 3.2 8.0 0.00 0.00 0.00 82 1017.3
20260506014229 18 206 6.4 14.5 0.00 0.00 0.00 82 1017.3
20260506013729 18 205 3.2 11.3 0.00 0.00 0.00 81 1017.3
20260506013229 18 212 0.0 3.2 0.00 0.00 0.00 81 1017.3
20260506012734 18 205 3.2 8.0 0.00 0.00 0.00 80 1017.3
20260506012229 18 195 6.4 11.3 0.00 0.00 0.00 80 1017.3
20260506011242 18 250 6.4 11.3 0.00 0.00 0.00 80 1016.9
20260506010730 18 224 3.2 8.0 0.00 0.00 0.00 80 1016.9
20260506010229 18 206 0.0 6.4 0.00 0.00 0.00 79 1016.9
20260506005729 19 224 3.2 6.4 0.00 0.00 0.00 78 1016.9
20260506005228 19 210 0.0 6.4 0.00 0.00 0.00 78 1016.9
20260506004727 19 212 0.0 6.4 0.00 0.00 0.00 77 1016.9
20260506004229 19 209 0.0 8.0 0.00 0.00 0.00 76 1016.9
20260506003727 19 211 0.0 6.4 0.00 0.00 0.00 76 1016.9
20260506003229 20 222 0.0 6.4 0.00 0.00 0.00 75 1016.9
20260506002728 20 200 3.2 11.3 0.00 0.00 0.00 75 1016.9
20260506002230 20 218 6.4 20.9 0.00 0.00 0.00 74 1016.9
20260506001727 20 190 6.4 14.5 0.00 0.00 0.00 74 1016.9
20260506001227 20 226 6.4 17.7 0.00 0.00 0.00 73 1016.9
20260506000729 20 227 3.2 11.3 0.00 0.00 0.00 72 1016.9
20260506000227 20 198 6.4 11.3 0.00 0.00 0.00 72 1016.9
20260505235730 20 170 6.4 22.5 0.00 0.00 0.00 71 1016.9
20260505235228 21 214 14.5 29.0 0.00 0.00 0.00 71 1016.9
20260505234727 21 196 6.4 20.9 0.00 0.00 0.00 71 1016.9
20260505234227 21 210 6.4 22.5 0.00 0.00 0.00 71 1016.9
20260505233728 21 197 6.4 20.9 0.00 0.00 0.00 71 1016.9
20260505233227 21 197 11.3 17.7 0.00 0.00 0.00 71 1016.9
20260505232727 21 248 11.3 20.9 0.00 0.00 0.00 71 1016.9
20260505232228 21 218 6.4 17.7 0.00 0.00 0.00 71 1016.9
20260505231729 21 238 6.4 20.9 0.00 0.00 0.00 70 1016.9
20260505231229 21 164 11.3 29.0 0.00 0.00 0.00 70 1016.9
20260505230727 21 224 14.5 25.7 0.00 0.00 0.00 69 1016.9
20260505230229 22 221 17.7 25.7 0.00 0.00 0.00 68 1016.9
20260505225727 22 229 20.9 29.0 0.00 0.00 0.00 68 1016.9
20260505225228 22 225 11.3 25.7 0.00 0.00 0.00 67 1016.9
20260505224727 22 199 6.4 20.9 0.00 0.00 0.00 67 1016.9
20260505224228 22 220 17.7 32.2 0.00 0.00 0.00 67 1016.9
20260505223727 22 239 6.4 14.5 0.00 0.00 0.00 68 1016.9
20260505223232 22 237 11.3 20.9 0.00 0.00 0.00 67 1016.9
20260505222727 22 211 14.5 29.0 0.00 0.00 0.00 66 1016.9
20260505222228 23 196 11.3 22.5 0.00 0.00 0.00 66 1016.9
20260505221728 23 187 14.5 32.2 0.00 0.00 0.00 66 1016.9
20260505221228 23 195 17.7 43.5 0.00 0.00 0.00 66 1016.9
20260505220727 23 193 6.4 20.9 0.00 0.00 0.00 66 1016.9
20260505220229 23 121 14.5 25.7 0.00 0.00 0.00 66 1016.9
20260505215730 23 217 11.3 25.7 0.00 0.00 0.00 65 1016.9
20260505215230 23 220 14.5 35.4 0.00 0.00 0.00 66 1016.9
20260505214729 23 199 6.4 25.7 0.00 0.00 0.00 68 1016.9
20260505214227 23 194 11.3 22.5 0.00 0.00 0.00 65 1016.6
20260505213728 23 221 6.4 32.2 0.00 0.00 0.00 65 1016.6
20260505213230 23 103 3.2 8.0 0.00 0.00 0.00 66 1016.6
20260505212729 23 123 6.4 14.5 0.00 0.00 0.00 66 1016.6
20260505212230 23 142 6.4 25.7 0.00 0.00 0.00 66 1016.6
20260505211728 23 219 6.4 32.2 0.00 0.00 0.00 65 1016.6
20260505211227 24 208 3.2 11.3 0.00 0.00 0.00 65 1016.6
20260505210731 24 154 6.4 20.9 0.00 0.00 0.00 66 1016.6
20260505210230 23 186 11.3 32.2 0.00 0.00 0.00 67 1016.6
20260505205727 23 189 6.4 11.3 0.00 0.00 0.00 67 1016.6
20260505205229 23 236 6.4 11.3 0.00 0.00 0.00 67 1016.9
20260505204732 23 210 6.4 14.5 0.00 0.00 0.00 66 1016.6
20260505204227 23 187 11.3 20.9 0.00 0.00 0.00 67 1016.9
20260505203730 24 226 17.7 32.2 0.00 0.00 0.00 64 1016.9
20260505203227 25 241 11.3 25.7 0.00 0.00 0.00 64 1016.9
20260505202728 25 240 3.2 11.3 0.00 0.00 0.00 64 1016.9
20260505202227 24 252 6.4 25.7 0.00 0.00 0.00 68 1016.9
20260505201729 23 261 11.3 22.5 0.00 0.00 0.00 67 1016.9
20260505201230 23 211 11.3 20.9 0.00 0.00 0.00 66 1016.9
20260505200729 24 132 3.2 11.3 0.00 0.00 0.00 65 1017.3
20260505200229 23 174 6.4 20.9 0.00 0.00 0.00 66 1017.3
20260505195730 24 113 6.4 11.3 0.00 0.00 0.00 66 1016.9
20260505195227 24 164 6.4 14.5 0.00 0.00 0.00 67 1016.9
20260505194731 25 186 11.3 22.5 0.00 0.00 0.00 62 1017.3
20260505194228 25 185 6.4 17.7 0.00 0.00 0.00 63 1017.3
20260505193729 24 274 6.4 25.7 0.00 0.00 0.00 62 1017.3
20260505192811 25 219 11.3 29.0 0.00 0.00 0.00 58 1017.6
20260505191730 26 224 11.3 29.0 0.00 0.00 0.00 58 1017.6
20260505191228 25 163 6.4 14.5 0.00 0.00 0.00 58 1017.6
20260505190727 25 195 6.4 14.5 0.00 0.00 0.00 59 1017.9
20260505190229 25 196 6.4 14.5 0.00 0.00 0.00 59 1017.6
20260505185728 25 136 6.4 17.7 0.00 0.00 0.00 58 1017.6
20260505185227 25 131 6.4 20.9 0.00 0.00 0.00 60 1017.9
20260505184729 25 192 6.4 11.3 0.00 0.00 0.00 60 1017.9
20260505184229 25 153 6.4 29.0 0.00 0.00 0.00 57 1017.9
20260505183734 25 156 6.4 25.7 0.00 0.00 0.00 60 1017.9
20260505183227 25 172 6.4 20.9 0.00 0.00 0.00 62 1017.9
20260505182729 26 147 3.2 11.3 0.00 0.00 0.00 59 1017.9
20260505182228 26 157 14.5 32.2 0.00 0.00 0.00 60 1017.9
20260505181730 25 222 6.4 17.7 0.00 0.00 0.00 60 1017.9
20260505181229 25 205 6.4 14.5 0.00 0.00 0.00 60 1017.9
20260505180730 25 209 6.4 20.9 0.00 0.00 0.00 59 1017.9
20260505180228 25 212 6.4 20.9 0.00 0.00 0.00 60 1017.9
20260505175727 25 218 6.4 25.7 0.00 0.00 0.00 57 1017.9
20260505175227 25 161 6.4 11.3 0.00 0.00 0.00 60 1017.9
20260505174730 25 176 6.4 11.3 0.00 0.00 0.00 57 1017.9
20260505174228 26 213 11.3 29.0 0.00 0.00 0.00 58 1017.9
20260505173729 25 213 6.4 29.0 0.00 0.00 0.00 58 1017.9
20260505173228 25 179 14.5 25.7 0.00 0.00 0.00 58 1017.9
20260505172728 25 211 6.4 17.7 0.00 0.00 0.00 62 1017.9
20260505172229 25 167 6.4 17.7 0.00 0.00 0.00 59 1017.9
20260505171730 25 234 6.4 14.5 0.00 0.00 0.00 60 1017.9
20260505171230 25 201 6.4 14.5 0.00 0.00 0.00 59 1017.9
20260505170728 25 152 11.3 17.7 0.00 0.00 0.00 59 1017.9
20260505170227 25 229 6.4 11.3 0.00 0.00 0.00 59 1017.9
20260505165728 25 204 3.2 8.0 0.00 0.00 0.00 60 1017.9
20260505165229 25 231 11.3 20.9 0.00 0.00 0.00 58 1017.9
20260505164728 25 173 3.2 11.3 0.00 0.00 0.00 58 1018.3
20260505164229 25 171 14.5 35.4 0.00 0.00 0.00 60 1018.3
20260505163727 25 209 17.7 37.0 0.00 0.00 0.00 59 1018.3
20260505163230 25 173 6.4 22.5 0.00 0.00 0.00 58 1018.3
20260505162730 25 206 11.3 25.7 0.00 0.00 0.00 59 1018.3
20260505162228 24 92 6.4 11.3 0.00 0.00 0.00 59 1018.3
20260505161728 24 131 11.3 25.7 0.00 0.00 0.00 58 1018.3
20260505161230 25 200 11.3 25.7 0.00 0.00 0.00 58 1018.3
20260505160728 25 176 11.3 22.5 0.00 0.00 0.00 58 1018.3
20260505160227 24 217 6.4 11.3 0.00 0.00 0.00 60 1018.3
20260505153227 24 254 6.4 17.7 0.00 0.00 0.00 62 1018.6
20260505152730 24 257 14.5 29.0 0.00 0.00 0.00 61 1018.6
20260505152229 23 235 11.3 22.5 0.00 0.00 0.00 61 1018.6
20260505151730 23 205 6.4 20.9 0.00 0.00 0.00 62 1018.6
20260505151229 23 245 17.7 29.0 0.00 0.00 0.00 61 1018.6
20260505150729 23 208 14.5 25.7 0.00 0.00 0.00 63 1018.6
20260505150229 23 245 11.3 17.7 0.00 0.00 0.00 61 1019.0
20260505140227 21 189 17.7 25.7 0.00 0.00 0.00 70 1018.6
20260505130230 19 213 14.5 22.5 0.00 0.00 0.00 79 1018.6
20260505124728 18 228 6.4 14.5 0.00 0.00 0.00 84 1018.6
20260505124228 17 215 6.4 14.5 0.00 0.00 0.00 86 1018.6
20260505123729 17 232 11.3 14.5 0.00 0.00 0.00 87 1018.6
20260505123230 16 217 11.3 20.9 0.00 0.00 0.00 90 1018.6
20260505122729 16 236 11.3 17.7 0.00 0.00 0.00 92 1018.6
20260505122228 15 219 6.4 8.0 0.00 0.00 0.00 96 1018.6
20260505121729 15 231 3.2 8.0 0.00 0.00 0.00 98 1018.6
20260505121228 14 215 3.2 8.0 0.00 0.00 0.00 99 1018.6
20260505120728 14 238 3.2 8.0 0.00 0.00 0.00 99 1018.6
20260505120230 13 222 3.2 8.0 0.00 0.00 0.00 99 1018.6
20260505115729 13 228 3.2 6.4 0.00 0.00 0.00 99 1018.6
20260505115228 12 219 0.0 0.0 0.00 0.00 0.00 99 1018.6
20260505114729 12 219 0.0 0.0 0.00 0.00 0.00 99 1018.3
20260505114229 12 219 0.0 0.0 0.00 0.00 0.00 99 1018.6
20260505113730 12 219 0.0 0.0 0.00 0.00 0.00 99 1018.3
20260505113231 12 219 0.0 0.0 0.00 0.00 0.00 99 1018.3
20260505112729 11 218 0.0 0.0 0.00 0.00 0.00 99 1018.3
20260505112229 11 218 0.0 0.0 0.00 0.00 0.00 99 1018.3
20260505111727 11 218 0.0 0.0 0.00 0.00 0.00 99 1018.3
20260505111227 11 216 0.0 0.0 0.00 0.00 0.00 98 1018.3
20260505110729 11 219 0.0 0.0 0.00 0.00 0.00 98 1018.3
20260505110227 11 216 0.0 0.0 0.00 0.00 0.00 98 1017.9
20260505101728 11 211 0.0 0.0 0.00 0.00 0.00 98 1017.6
20260505101228 11 211 0.0 0.0 0.00 0.00 0.00 98 1017.6
20260505100728 11 211 0.0 0.0 0.00 0.00 0.00 98 1017.3
20260505100228 11 213 0.0 0.0 0.00 0.00 0.00 98 1017.3
20260505095727 11 213 0.0 0.0 0.00 0.00 0.00 98 1017.3
20260505095228 11 211 0.0 0.0 0.00 0.00 0.00 97 1017.3
20260505094727 11 210 0.0 0.0 0.00 0.00 0.00 97 1016.9
20260505094227 11 211 0.0 0.0 0.00 0.00 0.00 97 1016.9
20260505093727 11 210 0.0 0.0 0.00 0.00 0.00 97 1016.9
20260505093227 11 211 0.0 0.0 0.00 0.00 0.00 97 1016.9
20260505092730 11 211 0.0 0.0 0.00 0.00 0.00 97 1016.9
20260505092227 11 208 0.0 0.0 0.00 0.00 0.00 97 1016.9
20260505091727 11 208 0.0 0.0 0.00 0.00 0.00 97 1016.9
20260505091228 11 211 0.0 0.0 0.00 0.00 0.00 97 1016.9
20260505090729 11 210 0.0 0.0 0.00 0.00 0.00 97 1016.9
20260505085728 11 213 0.0 0.0 0.00 0.00 0.00 97 1016.9
20260505085227 11 210 0.0 0.0 0.00 0.00 0.00 97 1016.9
20260505084727 11 206 0.0 0.0 0.00 0.00 0.00 97 1016.9
20260505084227 11 213 0.0 0.0 0.00 0.00 0.00 96 1016.9
20260505083727 11 214 0.0 0.0 0.00 0.00 0.00 96 1016.9
20260505083227 11 210 0.0 0.0 0.00 0.00 0.00 96 1016.9
20260505082727 11 210 0.0 0.0 0.00 0.00 0.00 96 1016.9
20260505082230 11 214 0.0 0.0 0.00 0.00 0.00 96 1016.9
20260505081730 11 213 0.0 0.0 0.00 0.00 0.00 96 1016.9
20260505081229 11 213 0.0 0.0 0.00 0.00 0.00 96 1016.9
20260505080730 11 213 0.0 0.0 0.00 0.00 0.00 96 1016.9
20260505080229 11 214 0.0 0.0 0.00 0.00 0.00 96 1016.9
20260505075730 12 210 0.0 0.0 0.00 0.00 0.00 95 1016.6
20260505075231 12 214 0.0 0.0 0.00 0.00 0.00 95 1016.6
20260505074730 12 216 0.0 0.0 0.00 0.00 0.00 95 1016.6
20260505074229 12 206 0.0 0.0 0.00 0.00 0.00 95 1016.6
20260505073729 12 202 0.0 0.0 0.00 0.00 0.00 95 1016.6
20260505073228 12 214 0.0 0.0 0.00 0.00 0.00 95 1016.6
20260505072730 12 216 0.0 0.0 0.00 0.00 0.00 95 1016.6
20260505072228 12 214 0.0 0.0 0.00 0.00 0.00 94 1016.6
20260505071730 12 216 0.0 0.0 0.00 0.00 0.00 94 1016.6
20260505071230 12 210 0.0 0.0 0.00 0.00 0.00 94 1016.6
20260505070731 12 210 0.0 0.0 0.00 0.00 0.00 94 1016.6
20260505070227 12 214 0.0 0.0 0.00 0.00 0.00 93 1016.6
20260505065728 12 214 0.0 0.0 0.00 0.00 0.00 93 1016.6
20260505065228 12 215 0.0 0.0 0.00 0.00 0.00 93 1016.6
20260505064729 12 215 0.0 0.0 0.00 0.00 0.00 93 1016.9
20260505064228 12 215 0.0 0.0 0.00 0.00 0.00 93 1016.6
20260505063727 12 214 0.0 0.0 0.00 0.00 0.00 92 1016.6
20260505063228 12 214 0.0 0.0 0.00 0.00 0.00 92 1016.6
20260505062734 13 215 0.0 0.0 0.00 0.00 0.00 92 1016.9
20260505062228 13 214 0.0 0.0 0.00 0.00 0.00 92 1016.6
20260505061729 13 214 0.0 0.0 0.00 0.00 0.00 92 1016.9
20260505061228 13 214 0.0 0.0 0.00 0.00 0.00 91 1016.9
20260505060729 13 214 0.0 0.0 0.00 0.00 0.00 91 1016.9
20260505060230 13 214 0.0 0.0 0.00 0.00 0.00 91 1017.3
20260505055729 13 215 0.0 0.0 0.00 0.00 0.00 90 1017.3